{"data":{"norad_id":37741,"intl_designator":"2011-033C","name":"GLOBALSTAR M091","alt_names":[],"object_type":"PAYLOAD","status":"ACTIVE","operator":null,"country":"GLOB","launch_date":"2011-07-13","launch_site_code":"TYMSC","launch_vehicle":null,"mission":null,"orbit_class":"UNKNOWN","rcs_meters":4.932,"size_class":null,"mass_kg":null,"dimensions":null,"purposes":["comms"],"wikipedia_slug":null,"has_3d_model":false,"image_url":null,"decayed_at":null,"tle_current":{"epoch":"2026-05-25T04:24:49.773024Z","epoch_age_seconds":59124,"freshness":"FRESH","line1":"1 37741U 11033C   26145.18390941 -.00000086  00000+0  10184-3 0  9994","line2":"2 37741  52.0007 311.9461 0000705 113.4452  57.6368 12.62263329686376","mean_motion":12.62263329,"eccentricity":7.05e-5,"inclination_deg":52.0007,"raan_deg":311.9461,"arg_perigee_deg":113.4452,"mean_anomaly_deg":57.6368,"bstar":0.00010184,"rev_number":68637,"period_min":114.08079177431,"perigee_km":1413.0670558102,"apogee_km":1414.165693036,"semimajor_km":7791.7533744231,"source":"CELESTRAK","updated_at":"2026-05-25T13:38:23.042636Z"}}}